Бьютт

США     46°00′18″N   112°32′20″W
темп.,
°C
ветер,
м/с
пор.,
м/с
влажн.,
%
обл.,
%
осадки,
мм/ч
давл.,
гПа
погр.,
м
15 мая, сб
сб1500:00+6вюв1178100 0.2 101510
03:00+5зсз1179100 0.0 101510
06:00+4ссз118355 0.1 101510
09:00+9ююв11575 0.1 1015527
12:00+14ссз0138100 0.6 10122280
15:00+14всв224124 0.2 10121815
18:00+15всв333574 0.2 10102123
21:00+10в224794 0.0 101112
16 мая, вс
вс1600:00+8в22653 0.0 101313
03:00+6ссв11710 0.0 101311
06:00+4св11770 0.0 101410
09:00+11ююз01515 0.0 1013512
12:00+16ююв22303 0.0 10101650
15:00+18ю32230 0.0 10082126
18:00+19ю12210 0.0 10061975
21:00+13юв33350 0.0 100818
17 мая, пн
пн1700:00+9вюв11380 0.0 100910
03:00+8юв11400 0.0 100910
06:00+7ю11460 0.0 100910
09:00+15ю23350 0.0 1008364
12:00+20з23220 0.0 10052334
15:00+22зюз341913 0.0 10033415
18:00+22ссз442243 0.0 10022852
21:00+16с353651 0.1 1005118
18 мая, вт
вт1800:00+12сз3469100 0.3 1009204
03:00+8з11845 0.1 100910
06:00+7сз11815 0.1 100810
09:00+14ююз24526 0.0 1008451
12:00+19з811255 0.0 10052619
15:00+20з8102337 0.0 10033142
18:00+20з892553 0.0 10032943
21:00+10сз46568 0.0 1009166
19 мая, ср
ср1900:00+7сз226412 0.0 101259
03:00+5зсз22665 0.0 101214
06:00+4сз11735 0.0 101210
09:00+10ю125465 0.0 1011442
12:00+17юв2532100 0.0 10072189
15:00+17з453675 0.1 10051725
18:00+7сз4591100 2.8 1009262
21:00+7с228684 1.2 100828